Content
SEND FEEDBACK

Daily
Averages
Monthly
Summary
United States of America

CHESTERFIELD, MISSOURI


Home > North America > United States > Missouri
Elevation: 170 meters     Latitude: 38 41N     Longitude: 090 31W

WEATHER
 
SELECT A DAY
Number of Records: 201,540;   Date Range: 1/1/95 - 4/19/14
 
SHARE

PRINT THIS DATA

[ ← Previous Day ]
WEATHER ALMANAC - 26 APRIL, 2013
[ Next Day → ]
[ °F ]   °C
Weather ElementAverageHighLow
Temperature12.8 °C15 °C (11:51 am)10.6 °C (4:51 am)
Dewpoint5.2 °C7.2 °C (1:51 pm)1.7 °C (1:51 am)
Humidity60.3 %71 % (10:51 pm)50 % (1:51 am)
Barometer1026.8 hPa1028.8 hPa (9:51 am)1025.1 hPa (7:51 pm)
Wind Speed15.8 km/h27.8 km/h (12:51 pm)
Wind Gust35.2 km/h (11:51 am)
Weather ElementAverage
Visibility16.1 km
Wind DirectionSSE (164.8 °)

Weather ElementTotal
Precipitation---
Heating Degree Days5.6 (Base 18.3)
Growing Degree Days2.8 (Base 10)
Averaged from 23 records on 26 April, 2013
WEATHER CONDITIONS BREAKOUT
WIND DIRECTION BREAKOUT
WEATHER BY HOUR - 26 APRIL, 2013
[ °F ]   °C
Local TimeTemperatureDewpointHumidityBarometerVisibilityWind DirectionWind SpeedGust SpeedPrecipitationEventsConditions
1:51 AM11.7 °C1.7 °C50 %1026.1 hPa16.1 kmSE (130°)16.7 km/hOvercast
2:51 AM11.7 °C2.2 °C52 %1025.4 hPa16.1 kmSE (130°)11.1 km/hOvercast
3:51 AM11.1 °C2.2 °C54 %1025.4 hPa16.1 kmSE (140°)18.5 km/hMostly Cloudy
4:51 AM10.6 °C2.8 °C59 %1026.1 hPa16.1 kmSE (140°)14.8 km/hMostly Cloudy
5:51 AM10.6 °C2.8 °C59 %1026.1 hPa16.1 kmSSE (150°)13 km/hMostly Cloudy
6:51 AM11.1 °C2.8 °C57 %1026.8 hPa16.1 kmSSE (150°)13 km/hOvercast
7:51 AM11.7 °C3.3 °C57 %1027.8 hPa16.1 kmSSE (160°)13 km/hOvercast
8:51 AM12.8 °C3.9 °C55 %1028.4 hPa16.1 kmSouth (170°)13 km/hOvercast
9:51 AM13.3 °C4.4 °C55 %1028.8 hPa16.1 kmSouth (190°)9.3 km/hOvercast
10:51 AM14.4 °C6.1 °C58 %1028.8 hPa16.1 kmSouth (190°)14.8 km/h0 mmRainLight Rain
11:51 AM15 °C6.1 °C55 %1027.8 hPa16.1 kmSouth (180°)20.4 km/h35.2 km/h0 mmOvercast
12:51 PM13.3 °C6.7 °C64 %1028.1 hPa16.1 kmSSW (210°)27.8 km/h0 mmOvercast
1:51 PM14.4 °C7.2 °C62 %1027.4 hPa16.1 kmSouth (180°)14.8 km/h0 mmRainLight Rain
2:51 PM14.4 °C6.7 °C60 %1027.1 hPa16.1 kmSouth (190°)13 km/h0 mmOvercast
3:51 PM14.4 °C6.7 °C60 %1026.1 hPa16.1 kmSSE (160°)18.5 km/hOvercast
4:51 PM15 °C6.7 °C58 %1025.7 hPa16.1 kmSSE (150°)24.1 km/hMostly Cloudy
5:51 PM13.9 °C6.7 °C62 %1026.4 hPa16.1 kmSouth (170°)18.5 km/hOvercast
6:51 PM13.3 °C6.7 °C64 %1026.1 hPa16.1 kmSSE (160°)16.7 km/hOvercast
7:51 PM12.8 °C6.7 °C67 %1025.1 hPa16.1 kmSSE (150°)18.5 km/hOvercast
8:51 PM12.2 °C6.7 °C69 %1027.1 hPa16.1 kmSouth (190°)9.3 km/hOvercast
9:51 PM12.2 °C6.7 °C69 %1026.8 hPa16.1 kmSouth (170°)13 km/hOvercast
10:51 PM11.7 °C6.7 °C71 %1026.4 hPa16.1 kmSouth (170°)14.8 km/hOvercast
11:51 PM11.7 °C6.7 °C71 %1026.1 hPa16.1 kmSSE (160°)16.7 km/hOvercast
Hourly data recorded from KSTL, located 14.63 kilometers away from Chesterfield, Missouri







STORIES FROM OUR PARTNERS